GW6225 Weather Reports


time (UTC)temp
F
wind
direction
speed
knots
gust
knots
rain 1hr
in
rain 24hr
in
rain mn
in
humidity
%
barometer
mb
20260506185410 82 153 2.6 4.3 0.00 0.00 0.00 88 1011.2
20260506184907 83 149 0.0 0.0 0.00 0.00 0.00 88 1011.3
20260506184404 83 157 0.9 4.3 0.00 0.00 0.00 87 1011.1
20260506183901 83 160 1.7 1.7 0.00 0.00 0.00 86 1011.2
20260506183355 84 130 1.7 1.7 0.00 0.00 0.00 87 1011.3
20260506182853 83 163 1.7 1.7 0.00 0.00 0.00 86 1011.3
20260506182350 84 135 1.7 1.7 0.00 0.00 0.00 86 1011.5
20260506181848 84 165 0.0 0.9 0.00 0.00 0.00 86 1011.5
20260506181346 84 160 0.9 0.9 0.00 0.00 0.00 86 1011.4
20260506180843 84 144 0.9 1.7 0.00 0.00 0.00 86 1011.5
20260506180339 84 164 0.0 0.9 0.00 0.00 0.00 86 1011.5
20260506175835 84 171 1.7 1.7 0.00 0.00 0.00 87 1011.6
20260506175332 84 159 0.9 1.7 0.00 0.00 0.00 87 1011.6
20260506174829 83 155 0.9 1.7 0.00 0.00 0.00 88 1011.6
20260506174327 83 168 2.6 2.6 0.00 0.00 0.00 87 1011.6
20260506173824 83 148 0.9 0.9 0.00 0.00 0.00 87 1011.6
20260506173321 84 113 0.9 1.7 0.00 0.00 0.00 86 1011.9
20260506172818 84 144 1.7 1.7 0.00 0.00 0.00 86 1011.9
20260506172314 84 171 2.6 4.3 0.00 0.00 0.00 85 1012.0
20260506171812 84 143 0.0 0.9 0.00 0.00 0.00 85 1012.0
20260506171309 84 147 0.0 0.0 0.00 0.00 0.00 85 1012.0
20260506170807 85 178 3.5 5.2 0.00 0.00 0.00 83 1012.2
20260506170302 85 153 0.9 1.7 0.00 0.00 0.00 85 1011.9
20260506165802 85 138 1.7 2.6 0.00 0.00 0.00 85 1011.9
20260506165258 85 169 2.6 4.3 0.00 0.00 0.00 84 1011.9
20260506164755 84 233 0.9 1.7 0.00 0.00 0.00 85 1011.9
20260506164252 84 158 1.7 1.7 0.00 0.00 0.00 87 1011.8
20260506163749 83 155 2.6 2.6 0.00 0.00 0.00 88 1011.8
20260506163244 83 122 0.0 0.9 0.00 0.00 0.00 89 1011.7
20260506162740 83 169 0.9 1.7 0.00 0.00 0.00 88 1011.9
20260506162238 83 153 1.7 1.7 0.00 0.00 0.00 88 1011.9
20260506161735 82 133 2.6 2.6 0.00 0.00 0.00 90 1011.8
20260506161232 82 128 1.7 2.6 0.00 0.00 0.00 91 1012.0
20260506160729 81 164 0.9 1.7 0.00 0.00 0.00 92 1011.7
20260506160226 81 272 2.6 2.6 0.00 0.00 0.00 91 1011.8
20260506155725 81 144 2.6 6.1 0.00 0.00 0.00 91 1011.6
20260506155221 82 149 0.9 0.9 0.00 0.00 0.00 93 1011.5
20260506153323 80 158 1.7 2.6 0.00 0.00 0.00 96 1011.5
20260506152820 79 159 0.0 0.9 0.00 0.00 0.00 96 1011.3
20260506152317 79 150 1.7 2.6 0.00 0.00 0.00 97 1011.3
20260506151816 79 141 4.3 6.1 0.00 0.00 0.00 97 1011.0
20260506151312 79 137 0.0 0.0 0.00 0.00 0.00 97 1011.1
20260506150809 79 127 1.7 1.7 0.00 0.00 0.00 97 1011.0
20260506150306 78 151 0.9 1.7 0.00 0.00 0.00 97 1011.1
20260506145803 78 154 2.6 2.6 0.00 0.00 0.00 98 1010.9
20260506145259 78 195 2.6 5.2 0.00 0.00 0.00 98 1010.9
20260506144757 79 148 1.7 2.6 0.00 0.00 0.00 98 1010.8
20260506144253 78 155 0.0 0.9 0.00 0.00 0.00 98 1010.8
20260506143751 78 136 2.6 2.6 0.00 0.00 0.00 99 1010.8
20260506143248 78 152 0.0 0.0 0.00 0.00 0.00 99 1010.9
20260506142747 78 171 0.9 1.7 0.00 0.00 0.00 99 1010.8
20260506142244 78 163 1.7 1.7 0.00 0.00 0.00 99 1010.6
20260506141742 78 146 0.0 0.9 0.00 0.00 0.00 99 1010.9
20260506141240 78 151 0.0 0.9 0.00 0.00 0.00 99 1010.9
20260506140738 78 149 0.0 0.9 0.00 0.00 0.00 99 1011.0
20260506140234 78 160 0.0 0.9 0.00 0.00 0.00 99 1011.1
20260506135731 78 138 1.7 1.7 0.00 0.00 0.00 99 1011.1
20260506135227 78 138 2.6 2.6 0.00 0.00 0.00 99 1010.9
20260506134725 78 140 0.9 0.9 0.00 0.00 0.00 99 1011.0
20260506134221 77 152 0.9 1.7 0.00 0.00 0.00 99 1011.0
20260506133718 78 136 0.0 0.0 0.00 0.00 0.00 99 1011.0
20260506133214 78 135 0.0 0.9 0.00 0.00 0.00 99 1011.2
20260506132712 77 137 0.0 0.0 0.00 0.00 0.00 99 1011.0
20260506132209 77 154 0.0 0.0 0.00 0.00 0.00 99 1011.0
20260506131707 77 153 0.0 0.0 0.00 0.00 0.00 99 1011.1
20260506131202 77 151 0.0 0.0 0.00 0.00 0.00 99 1011.2
20260506130659 77 143 0.0 0.0 0.00 0.00 0.00 99 1011.1
20260506130157 77 132 0.0 0.0 0.00 0.00 0.00 99 1011.1
20260506125655 77 133 0.0 0.9 0.00 0.00 0.00 99 1010.9
20260506125152 77 161 0.0 0.0 0.00 0.00 0.00 99 1011.0
20260506124650 77 154 0.0 0.9 0.00 0.00 0.00 99 1011.0
20260506124148 77 167 0.9 0.9 0.00 0.00 0.00 99 1010.8
20260506123645 77 135 0.0 0.0 0.00 0.00 0.00 99 1010.8
20260506123144 77 155 0.0 0.0 0.00 0.00 0.00 99 1010.9
20260506122640 77 147 0.9 1.7 0.00 0.00 0.00 99 1010.7
20260506122138 77 146 0.0 0.0 0.00 0.00 0.00 99 1010.8
20260506121635 77 135 0.0 0.0 0.00 0.00 0.00 99 1010.8
20260506121131 77 154 0.0 0.0 0.00 0.00 0.00 99 1010.7
20260506120629 77 148 0.9 0.9 0.00 0.00 0.00 99 1010.6
20260506120126 77 148 0.9 0.9 0.00 0.00 0.00 99 1010.4
20260506115625 77 169 0.0 0.9 0.00 0.00 0.00 99 1010.3
20260506115123 76 142 0.0 0.9 0.00 0.00 0.00 99 1010.3
20260506114620 76 134 0.0 0.0 0.00 0.00 0.00 99 1010.3
20260506114118 76 165 0.9 0.9 0.00 0.00 0.00 99 1010.3
20260506113616 76 146 0.9 0.9 0.00 0.00 0.00 99 1010.1
20260506113113 76 155 0.9 1.7 0.00 0.00 0.00 99 1010.0
20260506112609 76 135 2.6 4.3 0.00 0.00 0.00 99 1010.0
20260506112107 76 142 0.0 0.0 0.00 0.00 0.00 99 1009.9
20260506111604 76 160 0.9 0.9 0.00 0.00 0.00 99 1010.0
20260506111101 76 160 0.0 0.0 0.00 0.00 0.00 99 1010.0
20260506110559 76 151 0.0 0.0 0.00 0.00 0.00 99 1010.0
20260506110056 76 144 0.0 0.0 0.00 0.00 0.00 99 1010.0
20260506105552 76 147 0.0 0.0 0.00 0.00 0.00 99 1010.0
20260506105050 76 145 0.0 0.9 0.00 0.00 0.00 99 1010.1
20260506104548 76 139 1.7 1.7 0.00 0.00 0.00 99 1009.7
20260506104045 76 152 0.9 0.9 0.00 0.00 0.00 99 1009.9
20260506103542 76 142 0.9 0.9 0.00 0.00 0.00 99 1010.1
20260506103038 76 162 0.0 0.0 0.00 0.00 0.00 99 1010.1
20260506102537 76 162 0.9 0.9 0.00 0.00 0.00 99 1009.9
20260506102034 76 153 0.0 0.0 0.00 0.00 0.00 99 1009.8
20260506101531 76 144 0.0 0.0 0.00 0.00 0.00 99 1009.9
20260506101028 76 155 0.0 0.0 0.00 0.00 0.00 99 1009.6
20260506100526 76 145 0.0 0.9 0.00 0.00 0.00 99 1009.7
20260506100024 76 148 0.0 0.0 0.00 0.00 0.00 99 1009.6
20260506095523 76 153 0.0 0.9 0.00 0.00 0.00 99 1009.6
20260506095018 76 142 0.0 0.0 0.00 0.00 0.00 99 1009.7
20260506094516 76 148 1.7 2.6 0.00 0.00 0.00 99 1009.7
20260506094014 76 156 0.0 0.0 0.00 0.00 0.00 99 1009.7
20260506093512 76 156 0.9 1.7 0.00 0.00 0.00 99 1009.6
20260506093009 76 127 0.9 1.7 0.00 0.00 0.00 99 1009.5
20260506092507 76 137 0.9 0.9 0.00 0.00 0.00 99 1009.5
20260506092003 76 126 0.0 0.0 0.00 0.00 0.00 99 1009.6
20260506091502 76 145 0.0 0.9 0.00 0.00 0.00 99 1009.5
20260506090958 77 147 0.9 1.7 0.00 0.00 0.00 99 1009.9
20260506090457 76 157 0.0 0.0 0.00 0.00 0.00 99 1009.8
20260506085952 77 147 0.9 0.9 0.00 0.00 0.00 98 1009.9
20260506085449 77 151 0.0 0.0 0.00 0.00 0.00 98 1009.9
20260506084946 77 155 0.0 0.0 0.00 0.00 0.00 98 1009.9
20260506084443 76 150 0.9 0.9 0.00 0.00 0.00 98 1009.9
20260506083939 76 132 0.0 0.0 0.00 0.00 0.00 98 1009.9
20260506083436 77 146 0.0 0.0 0.00 0.00 0.00 98 1009.9
20260506082933 77 140 0.9 0.9 0.00 0.00 0.00 98 1010.2
20260506082430 77 154 0.0 0.0 0.00 0.00 0.00 98 1010.2
20260506081926 77 158 2.6 2.6 0.00 0.00 0.00 98 1010.3
20260506081425 77 149 0.0 0.0 0.00 0.00 0.00 98 1010.1
20260506080921 77 140 0.0 0.9 0.00 0.00 0.00 98 1010.1
20260506080418 77 136 0.9 1.7 0.00 0.00 0.00 98 1010.2
20260506073402 77 135 1.7 1.7 0.00 0.00 0.00 98 1010.7
20260506072859 77 136 0.0 0.0 0.00 0.00 0.00 98 1010.6
20260506072357 77 165 1.7 1.7 0.00 0.00 0.00 98 1010.7
20260506071854 77 138 0.9 1.7 0.00 0.00 0.00 98 1010.7
20260506071352 77 153 1.7 1.7 0.00 0.00 0.00 98 1010.6
20260506070849 77 151 0.0 0.0 0.00 0.00 0.00 98 1010.9
20260506070346 77 171 1.7 1.7 0.00 0.00 0.00 98 1010.7
20260506062323 76 156 3.5 4.3 0.00 0.00 0.00 98 1010.6
20260506061819 76 154 1.7 2.6 0.00 0.00 0.00 97 1010.6
20260506061316 76 147 1.7 1.7 0.00 0.00 0.00 97 1010.8
20260506060814 76 168 1.7 1.7 0.00 0.00 0.00 97 1010.7
20260506060312 77 158 0.9 1.7 0.00 0.00 0.00 97 1010.8
20260506051243 77 142 0.0 0.9 0.00 0.00 0.00 97 1010.9
20260506050741 77 123 1.7 2.6 0.00 0.00 0.00 97 1010.5
20260506050238 77 140 0.9 1.7 0.00 0.00 0.00 97 1010.7
20260506044729 77 164 0.9 1.7 0.00 0.00 0.00 96 1010.7
20260506044226 77 140 1.7 2.6 0.00 0.00 0.00 96 1010.7
20260506043724 77 180 1.7 2.6 0.00 0.00 0.00 96 1010.7
20260506043221 77 133 1.7 1.7 0.00 0.00 0.00 96 1010.8
20260506042720 77 170 1.7 2.6 0.00 0.00 0.00 96 1010.8
20260506042218 77 149 1.7 2.6 0.00 0.00 0.00 96 1010.7
20260506041716 77 98 1.7 5.2 0.00 0.00 0.00 96 1010.7
20260506041213 77 135 1.7 1.7 0.00 0.00 0.00 96 1010.6
20260506040710 77 166 3.5 5.2 0.00 0.00 0.00 96 1010.6
20260506040207 77 166 1.7 1.7 0.00 0.00 0.00 96 1010.6
20260506035703 77 165 2.6 2.6 0.00 0.00 0.00 96 1010.6
20260506035200 77 145 2.6 5.2 0.00 0.00 0.00 96 1010.8
20260506034657 77 170 2.6 2.6 0.00 0.00 0.00 96 1010.8
20260506034155 77 165 1.7 2.6 0.00 0.00 0.00 96 1010.6
20260506033652 77 159 1.7 2.6 0.00 0.00 0.00 96 1010.5
20260506033149 77 160 3.5 7.0 0.00 0.00 0.00 96 1010.7
20260506032646 77 126 0.9 0.9 0.00 0.00 0.00 96 1010.6
20260506032143 77 173 4.3 7.0 0.00 0.00 0.00 96 1010.6
20260506031639 77 144 2.6 4.3 0.00 0.00 0.00 96 1010.7
20260506031136 77 135 1.7 1.7 0.00 0.00 0.00 96 1010.4
20260506030635 77 148 0.9 0.9 0.00 0.00 0.00 96 1010.4
20260506030132 77 166 2.6 4.3 0.00 0.00 0.00 96 1010.5
20260506025629 77 147 3.5 5.2 0.00 0.00 0.00 96 1010.3
20260506025125 77 151 1.7 1.7 0.00 0.00 0.00 96 1010.2
20260506024623 77 151 1.7 1.7 0.00 0.00 0.00 96 1010.2
20260506024118 77 149 0.9 1.7 0.00 0.00 0.00 96 1010.2
20260506023615 77 152 1.7 1.7 0.00 0.00 0.00 96 1010.1
20260506023112 77 171 2.6 2.6 0.00 0.00 0.00 96 1010.0
20260506022610 77 175 2.6 2.6 0.00 0.00 0.00 96 1009.7
20260506022107 77 156 2.6 4.3 0.00 0.00 0.00 96 1009.8
20260506021604 77 151 0.9 0.9 0.00 0.00 0.00 96 1009.9
20260506021101 77 150 2.6 5.2 0.00 0.00 0.00 96 1009.6
20260506020559 77 150 1.7 4.3 0.00 0.00 0.00 96 1009.7
20260506020056 76 147 1.7 1.7 0.00 0.00 0.00 96 1009.7
20260506015554 76 158 0.9 1.7 0.00 0.00 0.00 96 1009.6
20260506015050 76 154 0.9 1.7 0.00 0.00 0.00 96 1009.5
20260506014548 76 143 0.9 1.7 0.00 0.00 0.00 96 1009.4
20260506014043 76 159 0.9 2.6 0.00 0.00 0.00 96 1009.3
20260506013542 76 164 1.7 2.6 0.00 0.00 0.00 96 1009.3
20260506013038 76 145 0.9 0.9 0.00 0.00 0.00 95 1009.2
20260506012534 77 154 1.7 1.7 0.00 0.00 0.00 95 1009.2
20260506012031 77 154 1.7 2.6 0.00 0.00 0.00 95 1009.0
20260506011529 77 168 2.6 4.3 0.00 0.00 0.00 95 1008.8
20260506011025 77 145 0.9 0.9 0.00 0.00 0.00 94 1008.7
20260506010524 77 146 0.9 0.9 0.00 0.00 0.00 94 1008.9
20260506010020 77 151 1.7 2.6 0.00 0.00 0.00 94 1009.0
20260506005518 77 137 0.9 0.9 0.00 0.00 0.00 93 1008.8
20260506005013 78 168 1.7 2.6 0.00 0.00 0.00 93 1008.8
20260506004511 78 154 0.9 1.7 0.00 0.00 0.00 92 1008.9
20260506004007 78 163 1.7 2.6 0.00 0.00 0.00 92 1008.6
20260506003504 78 143 3.5 5.2 0.00 0.00 0.00 92 1008.7
20260506003000 78 169 1.7 1.7 0.00 0.00 0.00 91 1008.7
20260506002456 78 147 0.0 0.9 0.00 0.00 0.00 91 1008.8
20260506001951 78 154 0.9 0.9 0.00 0.00 0.00 91 1008.7
20260506001449 79 167 2.6 4.3 0.00 0.00 0.00 91 1008.7
20260506000946 79 149 1.7 2.6 0.00 0.00 0.00 91 1008.6
20260506000445 79 127 2.6 4.3 0.00 0.00 0.00 90 1008.7
20260505235940 79 156 3.5 5.2 0.00 0.00 0.00 90 1008.8
20260505235438 79 147 0.9 0.9 0.00 0.00 0.00 90 1008.7
20260505234935 79 183 3.5 5.2 0.00 0.00 0.00 90 1008.7
20260505234432 79 145 0.0 0.9 0.00 0.00 0.00 90 1008.8
20260505233929 79 152 0.9 0.9 0.00 0.00 0.00 89 1008.8
20260505233427 80 158 3.5 4.3 0.00 0.00 0.00 89 1008.8
20260505232924 80 274 0.9 2.6 0.00 0.00 0.00 88 1008.9
20260505232422 79 154 0.9 0.9 0.00 0.00 0.00 89 1008.9
20260505231918 80 150 1.7 4.3 0.00 0.00 0.00 88 1008.8
20260505231416 80 135 1.7 1.7 0.00 0.00 0.00 88 1008.7
20260505230914 80 237 3.5 5.2 0.00 0.00 0.00 87 1008.8
20260505230411 80 123 2.6 5.2 0.00 0.00 0.00 86 1008.8
20260505225907 81 151 1.7 1.7 0.00 0.00 0.00 85 1008.8
20260505225405 81 155 2.6 4.3 0.00 0.00 0.00 85 1008.8
20260505224900 81 177 0.9 1.7 0.00 0.00 0.00 85 1008.7
20260505224358 81 172 2.6 2.6 0.00 0.00 0.00 85 1008.8
20260505223854 82 156 3.5 5.2 0.00 0.00 0.00 84 1008.8
20260505223351 82 195 0.9 1.7 0.00 0.00 0.00 83 1009.0
20260505222847 82 163 2.6 2.6 0.00 0.00 0.00 83 1008.9
20260505222344 82 165 2.6 4.3 0.00 0.00 0.00 83 1009.0
20260505221841 82 196 1.7 2.6 0.00 0.00 0.00 84 1008.9
20260505221337 82 149 3.5 5.2 0.00 0.00 0.00 83 1009.0
20260505220835 83 157 2.6 5.2 0.00 0.00 0.00 82 1008.8
20260505220331 82 223 4.3 9.6 0.00 0.00 0.00 83 1009.0
20260505215829 82 221 2.6 4.3 0.00 0.00 0.00 84 1009.2
20260505215327 81 145 4.3 5.2 0.00 0.00 0.00 84 1009.1
20260505214825 81 153 6.1 9.6 0.00 0.00 0.00 85 1009.3
20260505214322 80 151 1.7 2.6 0.00 0.00 0.00 86 1009.3
20260505213819 80 171 1.7 4.3 0.00 0.00 0.00 87 1009.3
20260505213317 80 202 2.6 4.3 0.00 0.00 0.00 86 1009.3
20260505212813 80 167 2.6 4.3 0.00 0.00 0.00 86 1009.4
20260505212310 81 145 4.3 6.1 0.00 0.00 0.00 85 1009.5
20260505211806 81 174 2.6 4.3 0.00 0.00 0.00 85 1009.4
20260505211304 81 151 2.6 2.6 0.00 0.00 0.00 85 1009.3
20260505210800 81 151 5.2 6.1 0.00 0.00 0.00 85 1009.4
20260505210257 81 249 2.6 5.2 0.00 0.00 0.00 86 1009.8
20260505205754 81 149 3.5 4.3 0.00 0.00 0.00 86 1009.7
20260505205253 81 242 4.3 7.0 0.00 0.00 0.00 85 1010.0
20260505204749 81 285 1.7 4.3 0.00 0.00 0.00 85 1010.1
20260505204247 81 157 2.6 2.6 0.00 0.00 0.00 85 1010.2
20260505203744 81 123 4.3 6.1 0.00 0.00 0.00 85 1010.2
20260505203241 81 117 2.6 6.1 0.00 0.00 0.00 85 1010.2
20260505202736 82 188 2.6 2.6 0.00 0.00 0.00 84 1010.1
20260505202232 82 109 1.7 2.6 0.00 0.00 0.00 84 1010.3
20260505201729 82 151 2.6 4.3 0.00 0.00 0.00 84 1010.2
20260505201227 82 163 1.7 2.6 0.00 0.00 0.00 84 1010.3
20260505200725 81 168 1.7 2.6 0.00 0.00 0.00 85 1010.4
20260505200222 81 162 0.9 0.9 0.00 0.00 0.00 85 1010.6
20260505195717 81 163 0.9 1.7 0.00 0.00 0.00 85 1010.4
20260505195215 81 176 3.5 7.0 0.00 0.00 0.00 85 1010.5
20260505194712 81 132 3.5 6.1 0.00 0.00 0.00 84 1010.4
20260505194208 81 135 0.9 1.7 0.00 0.00 0.00 85 1010.4
20260505193704 81 179 3.5 4.3 0.00 0.00 0.00 84 1010.7
20260505193202 82 141 2.6 5.2 0.00 0.00 0.00 83 1010.4
20260505192700 81 179 0.0 0.9 0.00 0.00 0.00 85 1010.5
20260505192157 81 136 2.6 5.2 0.00 0.00 0.00 84 1010.5
20260505191656 81 157 0.9 1.7 0.00 0.00 0.00 84 1010.6
20260505191154 81 172 3.5 6.1 0.00 0.00 0.00 84 1010.5
20260505190649 81 176 1.7 2.6 0.00 0.00 0.00 84 1010.6
20260505190149 81 178 4.3 6.1 0.00 0.00 0.00 84 1010.5